Location: Bletchingley
(51.2333°N, 0.1000°W)
Time: 22:54:31
(UTC+00:00)

Nadezhda 4 Rocket - Pass Details

Date: 18 September 2020
Orbit: 949 x 993 km, 82.9° (Epoch: 21 October)

Event Time Altitude Azimuth Distance (km) Brightness Sun altitude
Rises 18:49:10 0° 353° (N) 3,643 7.3 -7.4°
Reaches altitude 10° 18:51:53 10° 2° (N) 2,690 6.5 -7.8°
Maximum altitude 18:57:34 38° 69° (ENE) 1,414 4.5 -8.7°
Drops below altitude 10° 19:03:12 10° 137° (SE) 2,671 5.8 -9.5°
Enters shadow 19:04:41 - 142° (SE) 3,187 6.2 -9.8°
